Weather History for Pine Ridge, SD

Change the Weather History Date:

Sunday, February 9, 2014

  Actual Average Record
Temperature  
Mean Temperature -2 °F 25 °F  
Max Temperature 9 °F 38 °F 64 °F (1999)
Min Temperature -13 °F 12 °F -18 °F (2011)
Degree Days  
Heating Degree Days 67 40  
Month to date heating degree days 558 363  
Since 1 July heating degree days 4743 4640  
Cooling Degree Days 0 0  
Month to date cooling degree days 0 0  
Year to date cooling degree days 0 0  
Moisture  
Dew Point -3 °F    
Average Humidity 81    
Maximum Humidity 92    
Minimum Humidity 69    
Precipitation  
Precipitation 0.07 in 0.01 in 0.69 in (2009)
Month to date precipitation 0.09 0.16  
Year to date precipitation 0.18 0.48  
Sea Level Pressure  
Sea Level Pressure 30.30 in    
Wind  
Wind Speed 3 mph (NE)    
Max Wind Speed 12 mph    
Max Gust Speed 14 mph    
Visibility 5 miles    
Events Snow    
T = Trace of Precipitation, MM = Missing Value Source: NWS Daily Summary

Daily Weather History Graph

Daily Weather History Graph

Search for Another Location

Airport:

Trip Planner

Search our weather history database for the weather conditions in past years. The results will help you decide how hot, cold, wet, or windy it might be!

Date:

Astronomy

Feb. 09, 2014 Rise Set
Actual Time 6:55 AM MST 5:13 PM MST
Civil Twilight 6:26 AM MST 5:43 PM MST
Nautical Twilight 5:52 AM MST 6:16 PM MST
Astronomical Twilight 5:19 AM MST 6:49 PM MST
Moon 12:52 PM MST (2/9) 3:05 AM MST (2/9)
Length of Visible Light 11h 16m
Length of Day
10h 17m
Waxing Gibbous, 77% of the Moon is Illuminated
Feb 9
Waxing Gibbous
Feb 14
Full
Feb 22
Last Quarter
Mar 1
New
Mar 8
First Quarter

Hourly Weather History & Observations

Time (MST) Temp. Windchill Dew Point Humidity Pressure Visibility Wind Dir Wind Speed Gust Speed Precip Events Conditions
12:52 AM 7.0 °F - 1.9 °F 80% 30.35 in 4.0 mi Calm Calm - 0.00 in Snow Light Snow
1:52 AM 6.1 °F - 1.0 °F 80% 30.35 in 7.0 mi Calm Calm - 0.00 in Snow Light Snow
2:13 AM 6.8 °F -4.8 °F -0.4 °F 72% 30.17 in 2.0 mi NNE 6.9 mph - 0.00 in Snow Light Snow
2:20 AM 6.8 °F -4.8 °F -0.4 °F 72% 30.17 in 2.0 mi NNE 6.9 mph - 0.00 in Snow Light Snow
2:37 AM 5.0 °F -5.6 °F -0.4 °F 78% 30.17 in 3.0 mi NNE 5.8 mph - 0.00 in Snow Light Snow
2:52 AM 5.0 °F -4.1 °F -0.9 °F 76% 30.36 in 4.0 mi NNE 4.6 mph - 0.00 in Snow Light Snow
3:39 AM 5.0 °F -5.6 °F -0.4 °F 78% 30.18 in 2.5 mi North 5.8 mph - 0.00 in Snow Light Snow
3:52 AM 3.9 °F -6.9 °F -0.9 °F 80% 30.37 in 2.5 mi North 5.8 mph - 0.00 in Snow Light Snow
4:11 AM 3.2 °F -12.2 °F -2.2 °F 78% 30.18 in 3.0 mi NNE 10.4 mph - 0.01 in Snow Light Snow
4:41 AM 3.2 °F -6.2 °F -2.2 °F 78% 30.17 in 1.8 mi NNE 4.6 mph - 0.01 in Snow Light Snow
4:52 AM 3.9 °F -6.9 °F -0.9 °F 80% 30.37 in 1.2 mi NNE 5.8 mph - 0.01 in Snow Light Snow
5:50 AM 3.2 °F -4.2 °F -2.2 °F 78% 30.17 in 2.0 mi NNE 3.5 mph - 0.01 in Snow Light Snow
5:52 AM 3.9 °F -5.3 °F -2.0 °F 76% 30.38 in 2.0 mi NNE 4.6 mph - 0.01 in Snow Light Snow
6:00 AM 3.2 °F -4.2 °F -2.2 °F 78% 30.18 in 1.5 mi NNE 3.5 mph - 0.00 in Snow Light Snow
6:24 AM 3.2 °F -4.2 °F -2.2 °F 78% 30.17 in 1.0 mi NE 3.5 mph - 0.01 in Snow Light Snow
6:35 AM 3.2 °F -4.2 °F -2.2 °F 78% 30.17 in 0.8 mi NE 3.5 mph - 0.02 in Snow Light Snow
6:52 AM 3.0 °F - -0.9 °F 84% 30.38 in 0.8 mi Calm Calm - 0.03 in Snow Light Snow
7:15 AM 3.2 °F - -0.4 °F 85% 30.19 in 1.0 mi Calm Calm - 0.01 in Snow Light Snow
7:36 AM 3.2 °F - -0.4 °F 85% 30.19 in 1.8 mi Calm Calm - 0.02 in Snow Light Snow
7:52 AM 3.9 °F - -0.9 °F 80% 30.38 in 2.0 mi Calm Calm - 0.02 in Snow Light Snow
8:00 AM 3.2 °F - -0.4 °F 85% 30.19 in 1.2 mi Calm Calm - 0.00 in Snow Light Snow
8:24 AM 3.2 °F - -0.4 °F 85% 30.20 in 2.0 mi Calm Calm - 0.00 in Snow Light Snow
8:50 AM 3.2 °F -4.2 °F -2.2 °F 78% 30.20 in 1.5 mi NE 3.5 mph - 0.00 in Snow Light Snow
8:52 AM 3.9 °F -3.4 °F -2.0 °F 76% 30.41 in 1.2 mi NE 3.5 mph - 0.00 in Snow Light Snow
9:19 AM 5.0 °F - -0.4 °F 78% 30.20 in 2.5 mi Calm Calm - 0.00 in Snow Light Snow
9:52 AM 6.1 °F - -0.9 °F 73% 30.43 in 2.5 mi Calm Calm - 0.00 in Snow Light Snow
10:52 AM 5.0 °F - -0.9 °F 76% 30.44 in 3.0 mi Calm Calm - 0.00 in Snow Light Snow
11:52 AM 8.1 °F - -0.0 °F 70% 30.41 in 5.0 mi Calm Calm - 0.00 in Snow Light Snow
12:52 PM 8.1 °F -0.5 °F 1.0 °F 73% 30.38 in 5.0 mi East 4.6 mph - 0.00 in Snow Light Snow
1:39 PM 8.6 °F 2.0 °F -0.4 °F 67% 30.17 in 10.0 mi ENE 3.5 mph - 0.00 in   Mostly Cloudy
1:52 PM 9.0 °F 2.4 °F 1.0 °F 70% 30.37 in 10.0 mi ENE 3.5 mph - 0.00 in   Mostly Cloudy
2:01 PM 8.6 °F 0.1 °F -0.4 °F 67% 30.17 in 10.0 mi ENE 4.6 mph - N/A   Partly Cloudy
2:52 PM 8.1 °F -2.0 °F -0.0 °F 70% 30.40 in 10.0 mi East 5.8 mph - N/A   Partly Cloudy
3:52 PM 8.1 °F -2.0 °F -0.0 °F 70% 30.40 in 10.0 mi East 5.8 mph - N/A   Overcast
4:33 PM 6.8 °F -2.0 °F -0.4 °F 72% 30.20 in 9.0 mi NE 4.6 mph - N/A   Mostly Cloudy
4:40 PM 5.0 °F -4.1 °F -2.2 °F 72% 30.19 in 9.0 mi ENE 4.6 mph - N/A   Mostly Cloudy
4:52 PM 3.9 °F -3.4 °F -2.0 °F 76% 30.43 in 10.0 mi ENE 3.5 mph - N/A   Mostly Cloudy
5:52 PM 3.9 °F - -2.0 °F 76% 30.45 in 10.0 mi Calm Calm - N/A   Overcast
6:52 PM 3.9 °F -5.3 °F -2.0 °F 76% 30.46 in 10.0 mi ENE 4.6 mph - N/A   Overcast
7:52 PM 3.9 °F - -0.9 °F 80% 30.45 in 10.0 mi Calm Calm - N/A   Mostly Cloudy
8:52 PM -5.1 °F -13.6 °F -8.0 °F 87% 30.48 in 10.0 mi ENE 3.5 mph - N/A   Clear
9:52 PM -9.0 °F -20.4 °F -11.9 °F 87% 30.47 in 10.0 mi ENE 4.6 mph - N/A   Clear
10:08 PM -9.4 °F - -14.8 °F 77% 30.21 in 1.8 mi Calm Calm - N/A   Partly Cloudy
10:19 PM -11.2 °F - -14.8 °F 84% 30.21 in 3.0 mi Calm Calm - N/A   Clear
10:52 PM -11.9 °F - -17.0 °F 78% 30.49 in 7.0 mi Calm Calm - N/A   Partly Cloudy
11:14 PM -11.2 °F - -16.6 °F 77% 30.21 in 10.0 mi Calm Calm - N/A   Mostly Cloudy
11:52 PM -7.1 °F - -11.0 °F 83% 30.44 in 10.0 mi Calm Calm - N/A   Overcast